Temp
98 90 74 82 88 94 92 89 86 89 94 90 88 83 84 88 87 83 84 84 84 84 87 86 88 87 84 79 78 78 83 85 82 79 81 82 84 86 83 84 85 79 81 82
92 87 83 95 96 94 92 89 86 90 94 91 88 83 85 88 87 85 85 85 85 85 85 86 85 88 86 83 81 82 84 83 81 81 82 83 84 86 85 85 83 87 83 83
87 87 96 95 93 91 92 89 88 86 91 93 87 79 81 86 90 90 90 89 91 89 88 87 87 86 87 84 83 83 84 82 83 83 84 84 85 85 82 86 86 87 86 85
92 98 94 92 91 93 86 94 92 90 87 79 89 66 73 82 84 88 90 91 92 92 91 91 89 89 89 88 88 88 84 83 85 85 84 82 83 82 84 86 87 87 86 85
89 92 92 90 91 95 88 96 92 91 87 87 84 76 69 81 79 85 90 92 93 93 93 92 92 92 93 93 92 90 85 83 85 85 84 82 83 85 87 84 83 85 85 86
93 101 97 95 97 97 98 93 92 92 88 77 76 68 63 63 77 84 91 94 95 95 95 95 95 95 95 96 94 94 87 85 85 86 85 83 83 84 83 81 79 84 86 82
91 93 99 98 92 98 95 89 76 73 71 70 82 75 74 71 79 87 91 94 96 97 96 96 94 95 93 94 95 94 89 84 85 85 85 84 83 84 84 83 84 86 85 78
82 80 93 99 94 90 91 90 76 64 69 72 83 71 76 80 68 88 97 98 98 98 98 97 97 97 95 94 94 92 89 85 86 85 84 84 85 85 86 86 88 89 89 90
81 81 97 98 99 97 90 85 94 83 83 79 78 79 76 76 73 79 94 97 97 99 101 99 100 100 98 95 94 93 89 85 85 86 85 84 85 85 86 85 87 88 87 90
92 80 93 97 100 98 93 97 83 85 71 67 74 64 51 62 82 92 95 96 98 101 102 103 103 100 100 101 97 95 91 87 87 89 87 87 87 86 86 86 85 85 86 87
96 90 86 95 89 88 91 88 90 89 84 70 68 67 72 61 64 68 89 95 97 98 99 99 99 98 98 103 101 99 95 92 89 90 89 87 87 88 86 87 86 85 85 84
97 92 82 85 96 98 95 90 90 79 76 82 78 66 74 73 69 69 73 91 98 98 98 97 95 95 96 96 97 97 96 94 94 92 88 89 89 87 89 86 88 88 86 85
96 88 79 81 87 92 90 92 93 92 90 79 70 61 73 69 70 71 73 93 93 94 94 94 94 91 90 93 92 95 94 93 94 91 93 91 92 90 87 87 89 89 86 86
89 90 84 77 76 85 84 88 91 89 81 81 76 65 65 68 71 74 72 91 93 92 92 93 92 91 91 91 91 91 94 95 95 96 92 91 91 91 92 89 87 89 88 85
95 83 87 89 91 89 87 87 88 85 86 80 80 74 69 67 71 66 92 92 92 92 92 92 92 91 91 90 90 93 92 88 89 88 90 88 88 87 87 87 86 85 84 86
95 82 86 83 89 89 85 88 89 88 88 87 88 86 97 90 92 93 93 93 91 92 92 92 90 91 90 89 88 87 86 87 87 85 84 84 84 84 85 84 85 83 83 83
91 87 83 77 87 85 79 86 88 89 91 90 83 91 96 91 92 92 93 93 92 91 90 90 91 92 91 89 87 85 85 87 84 82 82 81 81 80 80 81 81 80 80 81
90 87 85 78 82 68 86 96 94 90 91 93 93 95 96 96 96 96 97 95 91 90 90 89 91 91 91 90 87 84 84 81 80 78 77 78 78 78 79 80 81 81 80 79
96 89 81 75 75 81 86 91 90 87 85 95 93 95 97 97 95 92 97 95 91 89 91 92 92 89 87 85 84 81 80 80 78 78 77 77 77 76 76 76 76 77 79 80
95 94 84 79 71 67 83 94 98 95 78 96 96 95 95 93 82 85 93 93 92 93 93 90 89 88 85 84 84 81 79 77 75 76 76 77 77 75 74 74 75 76 76 77
83 82 78 78 74 80 92 96 99 75 80 96 99 97 95 89 92 92 95 92 93 93 92 91 89 85 84 85 84 80 78 74 76 76 76 76 76 74 74 74 73 73 73 74
79 76 77 78 72 68 96 95 85 91 97 97 97 98 96 94 94 93 92 91 91 88 87 87 84 82 82 82 80 78 75 75 75 75 75 75 75 76 76 73 72 73 72 71
78 85 79 81 81 92 97 95 100 100 96 96 97 99 97 94 92 91 89 89 87 87 87 87 83 79 79 78 78 75 74 75 74 74 75 75 76 75 76 73 72 73 74 75
87 92 85 83 90 92 95 98 99 99 98 100 100 100 99 94 93 91 90 89 87 88 87 87 83 81 78 78 78 78 75 75 74 74 74 76 75 76 77 76 77 75 74 72
84 85 83 85 89 92 94 96 98 98 99 99 100 100 99 97 93 91 90 87 87 87 87 86 83 80 78 78 77 77 76 75 73 73 75 76 76 74 75 76 75 75 72 70
83 81 80 77 85 87 90 96 98 96 96 98 98 97 100 96 92 92 89 88 86 84 82 80 79 78 77 77 76 75 75 73 70 72 74 72 73 73 73 72 71 62 61 59
MSLP
997.59 997.33 998.62 998.05 997.60 996.09 995.29 994.91 995.15 996.16 996.91 997.35 998.22 1000.33 1001.62 1002.45 1003.54 1004.54 1005.30 1005.96 1006.84 1007.59 1008.31 1009.20 1009.96 1011.01 1012.22 1012.93 1013.30 1013.50 1013.75 1013.83 1014.46 1014.93 1014.98 1014.92 1014.84 1014.83 1014.91 1014.89 1014.97 1015.38 1015.99 1016.51
997.53 996.59 998.21 996.77 996.12 995.61 994.92 994.40 994.94 995.95 996.60 997.25 998.17 999.91 1001.66 1002.54 1003.31 1004.35 1004.83 1005.50 1006.11 1006.98 1007.91 1008.79 1009.68 1010.27 1011.41 1012.25 1012.80 1013.46 1013.53 1013.91 1014.39 1014.34 1014.29 1014.43 1014.61 1014.44 1014.42 1014.31 1014.63 1014.85 1015.33 1015.88
996.98 997.22 996.97 996.17 995.52 994.78 994.34 994.02 994.50 995.28 996.13 996.86 998.38 1000.30 1001.57 1002.53 1002.98 1003.65 1004.28 1004.77 1004.95 1005.38 1006.34 1007.56 1008.50 1009.48 1010.49 1011.31 1011.99 1012.67 1013.02 1013.70 1014.05 1014.12 1014.23 1014.29 1014.31 1014.39 1014.35 1014.16 1014.38 1014.50 1014.72 1015.27
996.62 995.91 995.89 995.78 994.98 994.69 994.19 994.61 994.75 994.94 995.30 995.61 997.25 1000.08 1001.89 1002.06 1002.67 1002.77 1002.92 1003.44 1003.89 1004.47 1005.40 1006.41 1007.39 1008.29 1009.09 1010.11 1011.03 1011.47 1012.43 1013.21 1013.49 1013.63 1013.82 1014.06 1013.98 1014.11 1014.17 1014.03 1013.82 1013.89 1014.01 1014.43
996.11 995.57 995.26 994.99 994.75 994.81 994.74 994.52 994.65 994.71 994.94 994.88 996.05 998.91 1002.84 1001.84 1002.64 1002.33 1002.03 1002.15 1002.84 1003.68 1004.46 1005.48 1006.41 1007.18 1007.95 1008.98 1009.95 1010.59 1011.64 1012.44 1012.70 1013.20 1013.47 1013.76 1013.79 1013.60 1013.57 1013.61 1013.36 1013.29 1013.41 1013.63
996.05 995.31 995.11 994.93 994.79 994.70 994.64 994.51 994.35 994.12 994.25 994.83 997.11 1000.89 1004.08 1002.80 1001.14 1001.44 1001.38 1001.06 1001.41 1002.47 1003.38 1004.20 1005.28 1006.11 1006.71 1007.71 1008.67 1009.42 1010.58 1011.36 1011.92 1012.37 1012.91 1013.26 1013.46 1013.42 1013.25 1013.00 1012.56 1012.54 1013.05 1013.57
995.30 994.80 994.56 995.03 994.52 993.97 993.91 993.57 993.52 993.80 994.41 995.49 996.48 999.68 1001.28 1001.70 1001.90 1000.85 999.97 999.71 1000.34 1001.05 1002.32 1003.07 1003.91 1004.71 1005.73 1006.52 1007.41 1008.33 1009.29 1010.24 1010.95 1011.69 1012.27 1012.78 1013.08 1013.21 1013.09 1012.78 1012.39 1012.07 1012.78 1013.31
994.26 994.12 994.16 994.20 994.01 993.59 993.12 993.04 993.50 993.73 994.23 995.10 996.17 999.26 1000.66 1002.91 1002.01 999.83 998.01 997.56 998.64 999.91 1001.08 1002.20 1002.92 1003.70 1004.54 1005.51 1006.40 1007.32 1008.19 1009.29 1010.15 1010.86 1011.55 1012.12 1012.59 1013.00 1012.93 1012.74 1012.47 1012.04 1012.18 1012.94
994.11 994.06 993.88 993.92 993.96 993.89 993.15 992.82 993.05 992.74 993.26 994.08 996.77 999.94 1001.27 1003.90 1003.45 1001.08 996.52 996.47 997.40 998.66 999.69 1000.76 1001.56 1002.47 1003.15 1004.14 1005.04 1006.13 1007.28 1008.39 1009.39 1010.18 1010.87 1011.44 1011.98 1012.40 1012.41 1012.39 1012.26 1011.92 1011.85 1012.66
993.94 993.89 993.84 993.43 993.66 993.62 993.58 993.25 992.82 992.36 993.09 994.74 997.37 1001.83 1005.06 1005.99 1002.93 1000.32 999.05 998.08 997.74 998.74 999.35 1000.04 1000.49 1001.11 1001.99 1002.73 1003.96 1005.13 1006.30 1007.51 1008.58 1009.44 1010.27 1010.81 1011.25 1011.71 1011.87 1012.03 1011.96 1011.78 1011.49 1011.65
994.13 993.72 993.92 993.33 993.41 993.17 993.18 992.88 992.69 993.01 993.42 995.09 997.61 1002.36 1005.72 1006.36 1006.68 1003.31 1000.11 999.28 999.46 999.73 1000.24 1000.86 1001.35 1001.84 1002.17 1002.43 1003.23 1004.68 1006.03 1007.19 1008.34 1009.03 1009.45 1010.15 1010.54 1010.85 1011.10 1011.33 1011.44 1011.43 1011.32 1011.25
994.50 994.11 993.62 993.94 993.67 993.76 993.69 993.49 993.49 993.50 993.96 995.29 997.38 1002.62 1004.92 1004.78 1004.60 1004.66 1002.86 1001.78 1000.32 1000.48 1000.89 1001.75 1002.41 1002.87 1003.16 1003.45 1003.76 1004.54 1005.76 1006.78 1007.65 1008.29 1009.11 1009.53 1009.82 1010.11 1010.21 1010.58 1010.67 1010.80 1010.89 1011.00
994.74 994.29 993.90 994.03 994.38 994.51 993.70 993.35 993.39 993.46 993.66 995.28 998.12 1003.36 1004.02 1005.41 1004.48 1005.38 1004.10 1001.70 1001.35 1001.27 1001.78 1002.61 1003.20 1003.71 1004.23 1004.51 1004.90 1005.34 1006.07 1006.81 1007.40 1007.87 1008.37 1008.82 1009.05 1009.51 1009.88 1010.10 1010.01 1010.13 1010.18 1010.42
995.61 995.01 994.72 994.36 995.46 995.03 994.07 993.88 993.93 994.04 994.08 995.30 998.31 1002.11 1004.65 1005.42 1003.50 1004.25 1003.90 1002.05 1001.70 1001.82 1002.28 1002.95 1003.75 1004.34 1004.85 1005.28 1005.65 1006.06 1006.20 1006.82 1007.10 1007.19 1007.50 1007.59 1008.18 1008.46 1008.89 1009.28 1009.48 1009.44 1009.55 1010.07
995.79 995.39 995.13 994.64 994.31 994.44 994.57 994.49 994.34 994.44 994.76 995.35 997.02 998.80 1000.43 1004.71 1003.97 1003.01 1000.99 1000.65 1001.24 1001.98 1002.57 1003.28 1003.86 1004.71 1005.38 1005.93 1006.30 1006.50 1006.85 1007.46 1007.87 1007.92 1008.09 1008.34 1008.52 1008.84 1008.96 1009.09 1009.31 1009.60 1009.63 1009.81
995.57 995.38 995.37 995.02 994.88 994.87 994.54 994.55 994.63 994.63 994.73 995.08 995.57 996.06 996.40 998.01 1000.14 999.97 999.58 999.95 1000.81 1001.65 1002.41 1003.20 1004.27 1004.97 1005.64 1006.57 1007.07 1007.67 1008.15 1008.48 1008.74 1008.91 1009.13 1009.34 1009.47 1009.47 1009.51 1009.56 1009.60 1009.84 1009.89 1010.00
994.70 994.97 994.91 994.76 994.75 994.79 994.39 994.10 994.07 994.20 994.34 994.60 994.84 995.07 995.44 997.00 998.10 998.79 999.07 999.26 1000.01 1001.26 1002.69 1003.85 1004.54 1005.11 1006.12 1007.07 1007.93 1008.55 1008.95 1009.18 1009.45 1009.71 1009.99 1010.14 1010.24 1010.17 1010.11 1010.14 1010.14 1010.15 1010.18 1010.21
994.23 994.56 994.98 995.00 995.21 994.85 994.43 994.11 994.13 994.23 994.48 994.62 994.66 994.58 995.02 995.83 996.97 997.88 998.57 999.27 1000.31 1001.66 1003.12 1004.26 1005.00 1005.75 1006.64 1007.52 1008.43 1009.06 1009.67 1010.07 1010.37 1010.64 1010.82 1010.90 1010.86 1010.77 1010.60 1010.43 1010.29 1010.22 1010.24 1010.30
994.74 994.64 994.72 995.00 995.12 995.03 994.61 994.42 993.98 993.89 994.40 994.16 994.52 994.76 994.93 995.93 997.28 998.63 998.93 1000.01 1001.18 1002.54 1003.86 1004.86 1005.75 1006.74 1007.65 1008.51 1009.29 1009.87 1010.33 1010.70 1010.94 1011.11 1011.26 1011.34 1011.33 1011.28 1011.17 1010.97 1010.76 1010.55 1010.30 1010.07
994.67 994.71 995.10 995.12 995.26 994.92 994.57 994.22 994.41 994.61 994.59 994.22 994.33 994.57 995.08 996.25 997.63 999.08 1000.18 1001.27 1002.31 1003.37 1004.34 1005.53 1006.82 1007.69 1008.44 1009.07 1009.72 1010.25 1010.73 1011.14 1011.41 1011.48 1011.47 1011.47 1011.45 1011.49 1011.44 1011.26 1011.00 1010.80 1010.60 1010.27
994.12 994.41 994.57 994.72 994.92 994.88 994.74 994.49 994.45 995.02 995.08 994.45 994.01 994.72 995.53 996.61 997.71 999.00 1000.58 1001.99 1002.93 1003.85 1004.96 1006.07 1006.95 1007.99 1008.85 1009.36 1009.87 1010.41 1010.97 1011.50 1011.72 1011.71 1011.67 1011.60 1011.62 1011.63 1011.44 1011.28 1011.26 1011.11 1010.90 1010.63
994.38 994.24 994.25 994.84 994.96 994.82 994.59 994.20 994.11 994.50 994.78 994.86 995.00 995.20 995.88 997.14 998.22 999.72 1001.28 1002.44 1003.52 1004.67 1005.87 1006.96 1007.93 1008.86 1009.68 1010.16 1010.47 1010.80 1011.32 1011.78 1011.90 1011.90 1011.75 1011.67 1011.61 1011.59 1011.38 1011.42 1011.26 1011.00 1010.70 1010.53
994.25 993.96 993.96 994.19 993.82 994.13 994.21 993.91 994.17 994.32 994.79 995.28 995.26 995.68 996.49 997.85 999.40 1000.80 1002.07 1003.15 1004.42 1005.47 1006.36 1007.24 1008.39 1009.38 1010.14 1010.74 1011.06 1011.24 1011.64 1011.88 1011.99 1011.84 1011.68 1011.57 1011.43 1011.33 1011.22 1011.17 1010.93 1010.69 1010.25 1010.16
994.53 994.19 993.78 993.94 993.73 993.67 993.78 994.20 994.40 994.79 995.20 995.32 995.66 996.02 996.65 997.94 999.55 1001.30 1002.74 1003.87 1004.86 1005.61 1006.37 1007.35 1008.33 1009.13 1010.07 1010.75 1011.09 1011.32 1011.63 1011.82 1011.86 1011.76 1011.64 1011.36 1011.08 1010.91 1010.89 1010.91 1010.57 1010.70 1010.77 1010.95
995.86 995.24 994.51 993.99 994.03 993.96 994.01 994.35 994.46 994.95 995.56 995.85 996.12 996.27 996.55 997.71 999.20 1000.87 1002.74 1004.16 1005.18 1005.98 1006.75 1007.46 1008.23 1009.28 1010.21 1010.88 1011.27 1011.47 1011.68 1011.86 1011.91 1011.86 1011.54 1011.29 1011.22 1011.23 1011.07 1010.81 1010.75 1010.87 1011.17 1011.41
997.47 996.41 996.00 995.57 995.61 994.64 994.29 994.57 994.84 995.21 995.71 996.06 996.37 996.73 996.88 997.48 999.00 1000.59 1002.34 1004.19 1005.55 1006.52 1007.38 1008.25 1009.04 1009.78 1010.49 1011.01 1011.40 1011.85 1012.01 1012.20 1012.45 1012.01 1011.69 1011.87 1011.93 1011.84 1011.75 1011.64 1011.57 1011.41 1011.36 1011.38
Wind_Speed
15 14 12 24 22 10 7 8 13 11 5 6 12 14 11 12 12 13 13 14 14 14 14 13 15 17 14 11 12 12 11 7 3 3 6 4 4 5 4 5 6 6 6 9
15 12 19 20 7 10 9 9 15 11 6 3 9 16 12 9 11 12 14 14 16 17 19 21 18 20 18 17 14 12 12 6 5 4 2 3 4 3 4 4 7 8 9 8
19 11 18 15 11 11 13 10 9 2 13 12 15 13 12 9 8 12 14 16 17 18 20 19 20 20 19 18 17 17 12 9 9 7 5 4 3 4 2 3 3 5 8 7
13 14 6 9 11 7 11 6 7 10 13 11 19 8 3 13 10 13 15 15 16 15 16 18 21 22 21 19 18 16 14 13 10 10 6 7 6 5 5 5 5 6 8 10
16 10 10 8 10 9 12 9 9 12 12 19 26 12 5 4 10 14 16 17 17 17 18 19 17 18 18 19 18 17 17 16 12 11 9 5 7 5 7 6 5 6 9 8
12 16 5 9 7 9 11 11 15 17 13 12 21 16 10 9 19 18 18 19 19 20 18 20 20 19 18 18 19 16 18 15 15 11 13 10 7 7 5 3 6 6 4 7
17 15 13 2 13 15 13 15 9 6 3 11 18 10 8 20 13 19 22 20 18 21 19 18 21 19 18 20 20 17 17 16 15 14 11 12 11 8 10 7 9 5 4 6
14 12 9 11 12 12 9 10 5 3 9 9 14 7 6 11 16 26 23 22 20 18 19 18 17 18 19 20 18 18 16 16 16 15 14 11 11 9 8 8 7 8 6 1
8 5 4 4 6 9 13 8 12 14 19 10 11 12 18 10 32 37 25 25 21 17 19 20 20 18 17 20 19 17 13 16 16 16 12 12 11 11 10 10 9 10 10 4
11 8 10 12 10 12 13 12 12 7 4 9 9 7 12 25 13 13 14 15 13 10 9 8 7 16 15 15 16 15 15 16 16 15 12 11 12 12 12 10 10 8 8 5
13 15 6 13 4 13 3 10 10 11 11 5 4 8 9 9 20 17 6 13 12 12 10 7 8 9 7 3 12 15 13 13 13 12 11 12 12 14 12 12 11 10 10 9
11 13 7 10 11 2 10 10 14 10 7 9 6 5 5 16 13 16 21 13 12 11 12 10 9 8 7 6 6 10 12 10 10 8 7 9 9 10 11 12 12 11 11 8
10 7 8 10 13 15 8 3 9 14 12 3 6 3 10 4 19 12 21 7 11 11 13 11 11 9 7 8 6 6 5 7 9 12 13 14 13 11 12 10 8 11 8 9
6 15 16 12 14 10 8 2 5 10 11 11 12 12 11 14 19 27 19 11 13 11 11 12 13 10 8 7 8 6 8 9 8 2 2 7 10 6 9 9 10 9 6 7
7 16 17 18 7 5 7 12 11 11 13 14 10 18 25 27 24 20 22 19 16 14 13 12 13 11 9 7 6 3 8 10 9 7 4 6 5 5 5 5 4 5 4 5
13 15 14 15 11 10 13 7 10 12 12 12 12 11 6 30 25 19 19 19 16 14 14 14 13 11 11 9 7 8 8 6 6 5 7 6 6 6 5 5 6 6 5 5
9 12 14 12 8 10 10 9 10 11 11 11 11 10 10 13 12 11 6 15 16 16 14 12 11 12 11 10 8 7 5 6 7 7 7 7 6 6 5 4 4 4 4 4
14 11 9 10 11 10 8 10 10 11 12 13 15 12 7 7 10 7 4 8 18 17 13 10 9 12 12 12 10 9 9 8 8 8 8 7 7 7 7 6 3 3 3 4
18 14 11 8 11 12 13 9 13 6 11 7 10 11 6 11 13 8 10 17 17 16 14 11 12 13 10 10 10 8 8 7 7 6 5 5 5 6 6 7 8 8 7 5
19 17 13 11 14 17 12 13 8 8 10 13 11 3 4 13 7 10 13 16 16 15 14 14 12 11 10 9 8 7 6 6 6 6 5 5 5 6 7 7 7 6 7 9
15 14 15 13 10 14 12 15 4 2 5 10 3 7 10 9 9 19 18 16 15 15 15 13 11 11 9 7 7 7 6 5 5 5 5 5 5 5 6 5 6 7 7 8
18 13 11 11 14 20 17 14 15 3 2 5 1 2 9 16 20 21 18 16 15 15 14 14 11 10 9 7 5 4 5 4 5 5 4 4 4 4 5 5 5 6 7 7
19 16 11 12 9 9 17 15 7 2 8 6 7 5 12 18 19 18 15 15 14 14 12 13 12 10 8 6 4 4 4 3 4 4 4 4 3 4 2 4 7 6 4 4
19 16 16 14 13 11 4 4 2 3 10 4 3 6 15 19 21 18 14 14 13 11 11 12 13 12 8 5 4 4 5 3 4 4 4 4 5 2 2 4 3 6 6 7
14 15 13 11 11 13 12 6 8 11 8 6 8 9 16 17 21 19 15 13 11 10 9 8 9 9 8 5 4 4 3 4 5 5 5 6 7 7 6 5 5 2 5 2
14 13 10 5 16 11 8 5 10 7 6 9 10 11 8 15 20 20 16 13 11 10 11 9 9 9 7 5 6 5 4 7 7 6 6 6 5 7 7 7 8 5 3 6
Wind_Direction
288 250 75 272 271 311 301 285 115 120 161 207 133 132 146 147 143 151 162 172 173 178 187 167 179 169 166 180 195 205 229 161 166 176 208 207 229 207 199 222 170 169 193 154
260 258 156 234 292 276 281 277 118 127 156 201 136 132 142 166 158 168 169 178 180 173 190 179 180 191 187 196 200 202 222 167 220 202 216 190 212 236 225 171 187 184 144 158
270 46 300 294 280 293 280 355 37 353 166 195 112 115 143 167 191 171 178 184 187 177 174 181 181 190 186 196 190 199 178 195 203 210 204 209 246 234 274 215 162 174 165 169
272 286 215 283 278 309 301 42 306 254 239 227 169 147 260 159 209 188 185 187 179 173 168 176 179 189 187 189 192 192 172 200 207 210 231 209 202 197 244 229 223 193 181 178
260 230 239 280 313 348 294 320 268 259 262 264 194 115 337 158 209 216 208 185 179 181 177 174 186 183 189 184 191 182 183 193 205 196 223 218 237 205 217 217 218 195 182 182
255 271 305 289 324 254 258 280 259 252 234 242 79 93 226 230 201 207 211 188 185 176 185 176 183 187 191 183 192 191 183 188 191 200 196 228 257 239 263 272 325 207 232 182
216 228 221 209 250 241 224 236 260 254 345 311 136 130 182 222 218 215 194 190 183 175 182 190 183 188 189 193 192 193 189 189 190 192 206 205 228 240 244 259 237 266 206 202
236 194 182 186 256 326 303 311 198 238 295 232 81 142 171 135 297 232 196 180 174 180 175 193 194 189 187 194 198 197 190 187 186 191 196 214 208 229 241 255 268 272 264 276
41 183 207 223 294 292 305 297 335 290 221 217 109 92 -0 340 215 244 179 168 155 177 179 183 192 201 197 191 194 191 189 177 183 190 195 203 217 215 234 232 243 235 252 241
286 200 248 169 209 227 261 314 300 298 342 334 102 78 145 256 310 125 144 105 107 134 141 157 173 191 189 194 181 181 173 168 178 189 194 207 211 220 226 243 255 269 290 300
303 295 184 254 352 332 268 274 303 337 301 217 184 93 161 104 265 328 18 125 127 120 111 93 70 50 45 157 167 168 159 159 175 195 202 202 210 219 219 229 234 239 246 251
246 298 305 226 210 314 285 272 285 279 328 323 346 122 244 235 59 76 283 261 138 117 105 107 96 99 100 70 75 146 164 180 190 205 195 232 225 222 227 222 226 222 228 225
320 278 271 341 7 345 285 318 332 301 304 283 7 292 299 52 107 224 241 178 115 117 116 122 117 95 100 109 98 112 115 156 204 197 208 210 217 214 231 250 237 223 216 208
313 283 297 286 168 200 306 271 313 315 301 11 83 116 215 199 174 212 236 181 138 135 153 128 124 130 109 118 107 136 164 158 202 226 284 204 192 217 208 224 240 229 214 212
254 265 278 283 339 356 302 310 320 311 316 320 139 157 186 200 204 253 182 149 155 148 135 151 136 125 130 102 112 108 63 53 36 29 46 31 36 16 7 1 350 334 337 231
248 260 275 295 301 300 288 276 286 289 295 295 302 318 49 156 187 146 151 147 145 161 151 129 125 144 122 113 93 65 48 67 57 60 51 37 23 10 344 349 335 344 326 293
206 251 256 264 278 312 296 245 250 268 258 270 283 296 87 123 144 152 159 150 152 130 115 130 143 123 116 109 100 104 89 80 70 67 55 42 18 10 29 17 346 347 347 337
292 241 255 285 301 269 275 308 344 326 317 317 311 312 148 78 100 89 144 194 121 122 129 119 113 115 105 96 81 87 80 67 66 56 45 30 18 7 359 341 305 273 288 288
267 274 275 251 242 256 266 258 277 294 328 249 280 272 114 114 106 90 98 105 109 108 119 131 100 92 107 109 91 76 74 69 58 50 45 29 11 0 351 347 347 341 332 289
249 253 261 256 257 273 293 313 36 9 293 278 258 198 149 127 155 130 117 116 125 138 131 111 114 115 104 98 102 95 84 65 40 19 14 5 359 355 344 327 327 335 333 317
245 229 246 247 258 268 259 277 225 295 324 353 192 136 155 160 201 140 137 139 142 129 125 127 113 96 87 83 99 95 84 49 17 1 351 346 357 332 290 357 346 334 325 317
257 261 222 240 248 260 276 260 242 256 269 252 303 215 129 100 114 128 135 132 127 113 114 114 117 110 89 70 72 76 66 28 8 346 328 347 335 334 351 345 309 299 287 286
256 261 262 228 248 223 239 257 265 260 252 342 144 168 133 130 134 134 138 132 127 144 145 130 123 120 116 99 70 58 68 31 357 321 344 320 299 276 297 291 291 277 292 316
263 265 264 265 243 240 190 302 92 312 328 183 261 204 153 144 141 140 142 143 149 152 140 143 151 142 122 115 89 64 53 25 336 332 311 287 269 249 332 305 324 8 4 12
298 315 295 262 273 261 273 310 203 201 246 274 260 290 170 162 150 149 149 145 141 138 130 123 108 107 109 95 82 63 36 20 359 350 314 5 13 13 332 2 358 299 84 59
289 291 300 350 352 313 254 269 280 228 252 256 234 241 251 162 148 146 141 139 131 128 112 111 115 115 111 106 104 68 15 45 21 333 15 41 3 5 9 4 351 41 109 220